Location: Marshall
(39.8477°N, 87.1868°W)
Time: 03:02:39
(UTC+00:00)

BlueWalker 3 - Pass Details

Date: 12 May 2026
Orbit: 447 x 456 km, 53.2° (Epoch: 9 June)

Event Time Altitude Azimuth Distance (km) Brightness Sun altitude
Exits shadow 09:17:45 - 299° (WNW) 2,431 5.2 -13.7°
Reaches altitude 10° 09:22:05 10° 350° (N) 1,576 4.8 -13.1°
Maximum altitude 09:22:14 10° 353° (N) 1,575 4.9 -13.1°
Drops below altitude 10° 09:22:22 10° 355° (N) 1,576 4.9 -13.0°
Sets 09:26:46 0° 46° (NE) 2,452 7.5 -12.4°
